EW5586 Weather Reports


time (UTC)temp
C
wind
direction
speed
KPH
gust
KPH
rain 1hr
cm
rain 24hr
cm
rain mn
cm
humidity
%
barometer
mb
20260508025320 6 196 0.0 6.4 0.00 0.00 0.00 73 1008.7
20260508024813 6 311 1.6 6.4 0.00 0.00 0.00 73 1008.8
20260508024307 6 247 0.0 4.8 0.00 0.00 0.00 73 1008.8
20260508023801 6 229 0.0 3.2 0.00 0.00 0.00 73 1008.8
20260508023258 6 231 0.0 9.7 0.00 0.00 0.00 72 1008.8
20260508022757 7 232 1.6 9.7 0.00 0.00 0.00 72 1008.8
20260508022257 7 239 1.6 6.4 0.00 0.00 0.00 72 1008.8
20260508021254 7 205 3.2 11.3 0.00 0.00 0.00 71 1008.8
20260508020254 7 228 3.2 14.5 0.00 0.00 0.00 71 1008.8
20260508015752 7 225 4.8 14.5 0.00 0.00 0.00 71 1008.8
20260508015249 7 216 4.8 11.3 0.00 0.00 0.00 71 1008.7
20260508014750 7 224 6.4 11.3 0.00 0.00 0.00 70 1008.7
20260508014251 7 215 6.4 12.9 0.00 0.00 0.00 70 1008.6
20260508013749 7 214 8.0 12.9 0.00 0.00 0.00 70 1008.6
20260508013250 7 234 4.8 11.3 0.00 0.00 0.00 69 1008.6
20260508012748 8 232 6.4 16.1 0.00 0.00 0.00 69 1008.5
20260508011748 8 235 8.0 12.9 0.00 0.00 0.00 68 1008.5
20260508011245 8 0 8.0 12.9 0.00 0.00 0.00 68 1008.5
20260508010745 8 229 8.0 14.5 0.00 0.00 0.00 68 1008.5
20260508010245 8 227 8.0 14.5 0.00 0.00 0.00 67 1008.5
20260508005733 8 225 9.7 14.5 0.00 0.00 0.00 67 1008.5
20260508005228 8 188 11.3 25.7 0.00 0.00 0.00 66 1008.5
20260508004721 8 0 12.9 25.7 0.00 0.00 0.00 66 1008.4
20260508004215 8 0 11.3 20.9 0.00 0.00 0.00 66 1008.4
20260508003709 8 217 11.3 24.1 0.00 0.00 0.00 64 1008.3
20260508003204 8 221 11.3 24.1 0.00 0.00 0.00 65 1008.3
20260508002658 8 209 11.3 24.1 0.00 0.00 0.00 63 1008.3
20260508001645 8 218 14.5 29.0 0.00 0.00 0.00 63 1008.2
20260508000634 8 0 12.9 20.9 0.00 0.00 0.00 65 1008.2
20260508000128 8 220 12.9 24.1 0.00 0.00 0.00 68 1008.1
20260507235620 8 197 11.3 24.1 0.00 0.00 0.00 69 1008.1
20260507235115 9 231 9.7 22.5 0.00 0.00 0.00 66 1008.0
20260507234612 9 225 11.3 22.5 0.00 0.00 0.00 60 1007.9
20260507234103 9 216 14.5 29.0 0.00 0.00 0.00 60 1008.0
20260507233051 9 227 14.5 29.0 0.00 0.00 0.00 60 1008.0
20260507232545 9 189 9.7 19.3 0.00 0.00 0.00 60 1008.0
20260507232039 9 218 9.7 17.7 0.00 0.00 0.00 60 1008.0
20260507231533 9 204 9.7 22.5 0.00 0.00 0.00 60 1008.0
20260507231027 9 258 11.3 19.3 0.00 0.00 0.00 61 1008.0
20260507230522 9 218 12.9 19.3 0.00 0.00 0.00 63 1008.0
20260507230015 8 225 12.9 19.3 0.00 0.00 0.00 71 1008.1
20260507225515 8 203 12.9 17.7 0.00 0.00 0.00 75 1008.2
20260507225003 8 0 12.9 17.7 0.00 0.00 0.00 75 1008.2
20260507224459 8 175 12.9 22.5 0.00 0.00 0.00 75 1008.2
20260507223951 8 195 14.5 22.5 0.00 0.00 0.00 75 1008.2
20260507221927 8 183 19.3 25.7 0.00 0.00 0.00 71 1008.3
20260507221421 8 211 19.3 32.2 0.00 0.00 0.00 70 1008.4
20260507220915 8 219 19.3 30.6 0.00 0.00 0.00 71 1008.4
20260507220409 8 217 19.3 25.7 0.00 0.00 0.00 71 1008.4
20260507215903 9 198 19.3 25.7 0.00 0.00 0.00 71 1008.5
20260507214351 9 219 20.9 30.6 0.00 0.00 0.00 70 1008.5
20260507213852 9 221 20.9 33.8 0.00 0.00 0.00 69 1008.5
20260507213352 9 234 20.9 33.8 0.00 0.00 0.00 67 1008.5
20260507212851 9 223 20.9 32.2 0.00 0.00 0.00 67 1008.5
20260507212353 9 205 22.5 32.2 0.00 0.00 0.00 68 1008.6
20260507211351 9 187 19.3 32.2 0.00 0.00 0.00 68 1008.4
20260507210851 9 208 19.3 30.6 0.00 0.00 0.00 66 1008.4
20260507210350 9 213 19.3 30.6 0.00 0.00 0.00 65 1008.5
20260507205849 9 193 20.9 33.8 0.00 0.00 0.00 67 1008.5
20260507205350 9 191 20.9 33.8 0.00 0.00 0.00 65 1008.4
20260507204350 9 227 24.1 35.4 0.00 0.00 0.00 61 1008.4
20260507203849 9 235 24.1 37.0 0.00 0.00 0.00 59 1008.4
20260507203349 9 0 22.5 37.0 0.00 0.00 0.00 61 1008.4
20260507202843 9 187 24.1 33.8 0.00 0.00 0.00 67 1008.5
20260507202339 9 212 24.1 33.8 0.00 0.00 0.00 63 1008.5
20260507201840 9 212 22.5 33.8 0.00 0.00 0.00 68 1008.5
20260507200840 9 216 22.5 32.2 0.00 0.00 0.00 66 1008.5
20260507200339 9 184 20.9 32.2 0.00 0.00 0.00 66 1008.5
20260507195839 9 213 20.9 32.2 0.00 0.00 0.00 67 1008.6
20260507195339 9 202 22.5 33.8 0.00 0.00 0.00 67 1008.6
20260507194840 9 208 22.5 33.8 0.00 0.00 0.00 64 1008.7
20260507194339 9 186 20.9 35.4 0.00 0.00 0.00 61 1008.7
20260507193839 9 194 22.5 35.4 0.00 0.00 0.00 64 1008.8
20260507193339 10 0 19.3 25.7 0.00 0.00 0.00 60 1008.8
20260507192840 10 198 20.9 30.6 0.00 0.00 0.00 51 1008.7
20260507192335 10 207 16.1 30.6 0.00 0.00 0.00 50 1008.8
20260507191835 10 0 12.9 24.1 0.00 0.00 0.00 51 1008.7
20260507191335 10 213 19.3 29.0 0.00 0.00 0.00 55 1008.7
20260507190335 10 196 17.7 32.2 0.00 0.00 0.00 58 1009.0
20260507185835 10 0 17.7 30.6 0.00 0.00 0.00 52 1008.9
20260507185335 10 185 16.1 29.0 0.00 0.00 0.00 58 1008.9
20260507184835 10 227 12.9 22.5 0.00 0.00 0.00 57 1008.9
20260507184335 10 199 17.7 30.6 0.00 0.00 0.00 54 1008.9
20260507183835 10 197 19.3 30.6 0.00 0.00 0.00 61 1008.9
20260507183335 10 0 14.5 27.4 0.00 0.00 0.00 59 1009.0
20260507182835 10 205 9.7 25.7 0.00 0.00 0.00 52 1009.1
20260507182335 11 196 9.7 22.5 0.00 0.00 0.00 48 1009.1
20260507181836 10 0 11.3 27.4 0.00 0.00 0.00 52 1009.0
20260507181335 11 220 9.7 27.4 0.00 0.00 0.00 48 1009.2
20260507180836 11 221 8.0 17.7 0.00 0.00 0.00 43 1009.2
20260507180336 11 229 4.8 19.3 0.00 0.00 0.00 41 1009.1
20260507175835 12 179 3.2 20.9 0.00 0.00 0.00 42 1009.1
20260507175336 12 273 3.2 20.9 0.00 0.00 0.00 45 1009.0
20260507174334 11 304 9.7 27.4 0.00 0.00 0.00 41 1009.2
20260507173835 11 234 4.8 24.1 0.00 0.00 0.00 39 1009.1
20260507173335 11 180 3.2 12.9 0.00 0.00 0.00 44 1009.1
20260507172835 11 251 6.4 16.1 0.00 0.00 0.00 48 1009.2
20260507172336 11 302 6.4 20.9 0.00 0.00 0.00 44 1009.2
20260507171835 11 223 4.8 20.9 0.00 0.00 0.00 44 1009.4
20260507171333 11 205 4.8 19.3 0.00 0.00 0.00 45 1009.3
20260507170334 12 242 3.2 16.1 0.00 0.00 0.00 43 1009.4
20260507165329 11 0 4.8 27.4 0.00 0.00 0.00 46 1009.4
20260507164830 11 224 4.8 20.9 0.00 0.00 0.00 43 1009.7
20260507162831 11 313 3.2 16.1 0.00 0.00 0.00 49 1009.5
20260507161829 11 211 6.4 29.0 0.00 0.00 0.00 47 1009.7
20260507160825 11 215 6.4 24.1 0.00 0.00 0.00 49 1009.9
20260507160328 11 113 4.8 16.1 0.00 0.00 0.00 45 1009.9
20260507155825 11 283 4.8 16.1 0.00 0.00 0.00 45 1010.0
20260507155325 11 331 4.8 27.4 0.00 0.00 0.00 48 1009.9
20260507154326 11 265 4.8 16.1 0.00 0.00 0.00 47 1010.0
20260507153326 11 111 4.8 17.7 0.00 0.00 0.00 50 1010.1
20260507152825 10 211 4.8 19.3 0.00 0.00 0.00 50 1010.2
20260507151321 10 190 8.0 25.7 0.00 0.00 0.00 52 1010.2
20260507150821 10 0 9.7 25.7 0.00 0.00 0.00 50 1010.3
20260507150322 10 223 6.4 20.9 0.00 0.00 0.00 50 1010.5
20260507145821 10 216 4.8 25.7 0.00 0.00 0.00 50 1010.5
20260507145321 10 260 4.8 25.7 0.00 0.00 0.00 53 1010.4
20260507144820 10 307 4.8 14.5 0.00 0.00 0.00 54 1010.5
20260507144321 10 211 3.2 14.5 0.00 0.00 0.00 53 1010.4
20260507143817 10 234 3.2 16.1 0.00 0.00 0.00 54 1010.5
20260507143317 10 287 3.2 16.1 0.00 0.00 0.00 55 1010.5
20260507142817 9 223 3.2 12.9 0.00 0.00 0.00 57 1010.5
20260507141815 9 301 4.8 19.3 0.00 0.00 0.00 57 1010.5
20260507141313 9 9 6.4 19.3 0.00 0.00 0.00 58 1010.5
20260507140813 9 242 6.4 19.3 0.00 0.00 0.00 56 1010.5
20260507140311 9 229 3.2 17.7 0.00 0.00 0.00 58 1010.6
20260507135811 9 261 4.8 19.3 0.00 0.00 0.00 57 1010.5
20260507135309 9 243 3.2 19.3 0.00 0.00 0.00 57 1010.6
20260507134807 9 229 3.2 19.3 0.00 0.00 0.00 61 1010.5
20260507133803 8 228 3.2 14.5 0.00 0.00 0.00 58 1010.6
20260507133302 8 331 3.2 14.5 0.00 0.00 0.00 61 1010.6
20260507132802 8 350 3.2 14.5 0.00 0.00 0.00 60 1010.5
20260507132301 8 302 3.2 11.3 0.00 0.00 0.00 57 1010.6
20260507131800 7 240 4.8 19.3 0.00 0.00 0.00 59 1010.7
20260507131259 7 284 4.8 19.3 0.00 0.00 0.00 59 1010.7
20260507130759 7 234 3.2 16.1 0.00 0.00 0.00 61 1010.8
20260507130258 7 247 4.8 22.5 0.00 0.00 0.00 61 1010.7
20260507125759 7 355 4.8 22.5 0.00 0.00 0.00 59 1010.6
20260507125258 7 285 4.8 20.9 0.00 0.00 0.00 60 1010.7
20260507124759 6 160 4.8 17.7 0.00 0.00 0.00 62 1010.7
20260507124259 6 211 4.8 22.5 0.00 0.00 0.00 62 1010.6
20260507123759 6 216 4.8 22.5 0.00 0.00 0.00 62 1010.6
20260507123259 6 238 3.2 16.1 0.00 0.00 0.00 64 1010.7
20260507122758 6 243 3.2 12.9 0.00 0.00 0.00 65 1010.7
20260507122259 6 243 3.2 16.1 0.00 0.00 0.00 66 1010.7
20260507121258 5 202 1.6 8.0 0.00 0.00 0.00 67 1010.7
20260507120753 5 341 1.6 14.5 0.00 0.00 0.00 68 1010.7
20260507120246 5 236 3.2 14.5 0.00 0.00 0.00 69 1010.7
20260507115742 5 355 3.2 14.5 0.00 0.00 0.00 70 1010.7
20260507115236 5 291 3.2 14.5 0.00 0.00 0.00 70 1010.7
20260507114222 5 26 1.6 11.3 0.00 0.00 0.00 71 1010.6
20260507113716 4 239 1.6 6.4 0.00 0.00 0.00 72 1010.6
20260507113211 4 206 3.2 16.1 0.00 0.00 0.00 73 1010.6
20260507112705 4 218 4.8 16.1 0.00 0.00 0.00 73 1010.7
20260507112159 4 233 3.2 12.9 0.00 0.00 0.00 74 1010.6
20260507110147 3 216 4.8 17.7 0.00 0.00 0.00 76 1010.6
20260507104646 3 221 3.2 12.9 0.00 0.00 0.00 78 1010.4
20260507104147 3 210 4.8 14.5 0.00 0.00 0.00 78 1010.4
20260507103646 2 237 6.4 14.5 0.00 0.00 0.00 78 1010.2
20260507103148 2 0 4.8 12.9 0.00 0.00 0.00 79 1010.2
20260507101622 -17 0.0 0.0 0.00 0.00 0.00 1010.0
20260507101036 -17 0.0 0.0 0.00 0.00 0.00 1010.0
20260507100527 -17 0.0 0.0 0.00 0.00 0.00 1010.0
20260507095942 -17 0.0 0.0 0.00 0.00 0.00 1010.0
20260507095442 -17 0.0 0.0 0.00 0.00 0.00 1009.9
20260507094932 -17 0.0 0.0 0.00 0.00 0.00 1010.0
20260507094346 -17 0.0 0.0 0.00 0.00 0.00 1010.0
20260507093837 -17 0.0 0.0 0.00 0.00 0.00 1009.9
20260507093332 -17 0.0 0.0 0.00 0.00 0.00 1009.9
20260507092748 -17 0.0 0.0 0.00 0.00 0.00 1010.0
20260507091744 -17 0.0 0.0 0.00 0.00 0.00 1009.8
20260507091243 -17 0.0 0.0 0.00 0.00 0.00 1009.9
20260507090646 -17 0.0 0.0 0.00 0.00 0.00 1009.8
20260507085638 -17 0.0 0.0 0.00 0.00 0.00 1009.8
20260507085044 -17 0.0 0.0 0.00 0.00 0.00 1009.8
20260507084038 -17 0.0 0.0 0.00 0.00 0.00 1009.5
20260507083446 -17 0.0 0.0 0.00 0.00 0.00 1009.5
20260507082947 -17 0.0 0.0 0.00 0.00 0.00 1009.4
20260507082438 -17 0.0 0.0 0.00 0.00 0.00 1009.4
20260507081845 -17 0.0 0.0 0.00 0.00 0.00 1009.7
20260507081248 -17 0.0 0.0 0.00 0.00 0.00 1009.7
20260507080746 -17 0.0 0.0 0.00 0.00 0.00 1009.8
20260507080244 -17 0.0 0.0 0.00 0.00 0.00 1009.8
20260507075739 -17 0.0 0.0 0.00 0.00 0.00 1009.8
20260507075152 -17 0.0 0.0 0.00 0.00 0.00 1009.7
20260507074646 -17 0.0 0.0 0.00 0.00 0.00 1009.7
20260507074140 -17 0.0 0.0 0.00 0.00 0.00 1009.4
20260507073545 -17 0.0 0.0 0.00 0.00 0.00 1009.4
20260507072946 -17 0.0 0.0 0.00 0.00 0.00 1009.3
20260507072352 -17 0.0 0.0 0.00 0.00 0.00 1009.1
20260507071846 -17 0.0 0.0 0.00 0.00 0.00 1009.0
20260507071340 -17 0.0 0.0 0.00 0.00 0.00 1008.9
20260507070838 -17 0.0 0.0 0.00 0.00 0.00 1008.9
20260507070242 -17 0.0 0.0 0.00 0.00 0.00 1009.0
20260507065741 -17 0.0 0.0 0.00 0.00 0.00 1009.1
20260507065238 -17 0.0 0.0 0.00 0.00 0.00 1009.1
20260507064644 -17 0.0 0.0 0.00 0.00 0.00 1009.0
20260507064140 -17 0.0 0.0 0.00 0.00 0.00 1009.0
20260507063544 -17 0.0 0.0 0.00 0.00 0.00 1009.1
20260507062542 -17 0.0 0.0 0.00 0.00 0.00 1009.0
20260507061449 -17 0.0 0.0 0.00 0.03 0.00 1008.9
20260507060949 -17 0.0 0.0 0.00 0.03 0.00 1009.0
20260507055347 -17 0.0 0.0 0.00 0.03 0.00 1009.1
20260507054838 -17 0.0 0.0 0.00 0.03 0.00 1009.1
20260507054246 -17 0.0 0.0 0.00 0.03 0.00 1009.1
20260507053740 -17 0.0 0.0 0.00 0.03 0.00 1009.2
20260507052140 -17 0.0 0.0 0.00 0.03 0.00 1009.2
20260507051636 -17 0.0 0.0 0.00 0.03 0.00 1009.2
20260507050538 -17 0.0 0.0 0.00 0.03 0.00 1009.2
20260507050038 -17 0.0 0.0 0.00 0.03 0.00 1009.2
20260507045534 -17 0.0 0.0 0.00 0.03 0.00 1009.2
20260507044942 -17 0.0 0.0 0.00 0.03 0.00 1009.2
20260507044438 -17 0.0 0.0 0.00 0.03 0.00 1009.2
20260507043929 -17 0.0 0.0 0.00 0.03 0.00 1009.2
20260507043339 -17 0.0 0.0 0.00 0.03 0.00 1009.1
20260507042818 -17 0.0 0.0 0.00 0.03 0.00 1009.1
20260507041739 -17 0.0 0.0 0.00 0.03 0.00 1009.0
20260507041148 -17 0.0 0.0 0.00 0.03 0.00 1009.0
20260507040643 -17 0.0 0.0 0.00 0.03 0.00 1009.2
20260507040140 -17 0.0 0.0 0.00 0.03 0.00 1009.1
20260507035639 -17 0.0 0.0 0.00 0.03 0.03 1009.1
20260507035136 -17 0.0 0.0 0.00 0.03 0.03 1009.0
20260507034545 -17 0.0 0.0 0.00 0.03 0.03 1009.1
20260507033536 -17 0.0 0.0 0.00 0.03 0.03 1009.2
20260507032945 -17 0.0 0.0 0.00 0.03 0.03 1009.2
20260507032445 -17 0.0 0.0 0.00 0.03 0.03 1009.2
20260507031942 -17 0.0 0.0 0.00 0.03 0.03 1009.2
20260507031343 -17 0.0 0.0 0.00 0.03 0.03 1009.2
20260507030845 -17 0.0 0.0 0.00 0.03 0.03 1009.2
20260507030344 -17 0.0 0.0 0.00 0.03 0.03 1009.3
20260507025836 -17 0.0 0.0 0.00 0.03 0.03 1009.4